[[{"header":{"parameterUnit":"m.s-1","parameterCategory":1,"la1":30.2991,"la2":30.254,"lo1":-89.0895,"lo2":-89.0444,"dy":0.0017,"dx":0.0017,"nx":28,"ny":28,"refTime":"2024-04-25T09:00:00:Z","depth":0,"parameterNumber":2,"parameterNumberName":"U-component_of_WINDS"},"data":[0,0,0,0,0,0,0,0,0,0,0,0,0,0,0,0,0,0,0,0,0,0,0,0,0,0,0,0,0,0,0,0,0,0,0,0,0,0,0,0,0,0,0,0,0,0,0,0,0,0,0,0,0,0,0,0,0,0,1.429,1.4291,0,1.4379,1.438,1.4381,1.4403,1.4402,1.4401,1.4401,1.4491,1.4494,1.4497,0,0,0,0,0,0,0,0,0,0,0,0,0,1.4138,1.4141,1.429,1.4291,1.4292,1.4379,1.438,1.4381,1.4403,1.4402,1.4401,1.4401,1.449,1.4493,1.4497,0,0,0,0,0,0,0,0,0,0,0,0,0,1.4213,1.4141,1.429,1.4313,1.4316,1.4378,1.438,1.4381,1.4403,1.4402,1.4401,1.44,1.4489,1.4493,1.4498,1.4542,0,0,1.4511,1.4513,0,0,0,0,0,0,0,0,1.4209,1.4218,1.4309,1.4312,1.4315,1.4379,1.4359,1.4435,1.4403,1.437,1.4401,1.44,1.4454,1.4461,1.448,1.4546,1.455,1.4511,1.4514,1.4516,1.4517,0,0,0,0,0,0,0,1.4203,1.4215,1.4325,1.431,1.4314,1.4319,1.4329,1.4374,1.4416,1.4373,1.4375,1.4385,1.4456,1.4476,1.4482,1.4551,1.4511,1.4515,1.4518,1.452,1.4657,1.4658,0,0,0,0,0,0,1.4194,1.421,1.4322,1.4328,1.4259,1.4323,1.4333,1.4359,1.4415,1.4423,1.4385,1.4386,1.4469,1.4477,1.4486,1.454,1.4516,1.452,1.4523,1.4656,1.4657,1.4659,0,0,0,0,0,0,1.4191,1.4204,1.4319,1.427,1.4285,1.4326,1.4355,1.4361,1.4381,1.4425,1.4433,1.4398,1.4468,1.4479,1.4528,1.4544,1.4522,1.4526,1.4655,1.4657,1.4658,1.465,0,0,0,0,0,0,1.4186,1.4203,1.422,1.427,1.4287,1.436,1.4356,1.4364,1.4389,1.439,1.4439,1.4446,1.4468,1.4521,1.4532,1.4549,1.4529,1.4654,1.4656,1.4658,1.4649,1.4651,1.4653,0,0,0,0,0,1.4181,1.4215,1.4221,1.4235,1.431,1.436,1.437,1.4395,1.439,1.4408,1.4436,1.4445,1.454,1.4526,1.4538,1.4557,1.4653,1.4655,1.4657,1.4648,1.4651,1.4653,0,0,0,0,0,0,1.4166,1.4222,1.4229,1.428,1.4316,1.4364,1.4387,1.4398,1.4435,1.4434,1.4464,1.4474,1.452,1.4544,1.4527,1.4603,1.4596,1.4601,1.4585,1.4588,1.459,1.4582,1.4533,0,0,0,0,0,1.4169,1.4205,1.4252,1.4292,1.431,1.4345,1.4368,1.4385,1.4422,1.4437,1.4469,1.4504,1.4542,1.4567,1.4604,1.4653,1.4663,1.4672,1.4674,1.4676,1.4679,1.4705,1.4709,1.4666,1.4666,1.4666,0,0,1.4174,1.4209,1.4231,1.429,1.4319,1.4356,1.4358,1.4397,1.4424,1.4443,1.449,1.4514,1.4556,1.4604,1.4627,1.4625,1.4693,1.4679,1.4679,1.4682,1.4708,1.4712,1.4716,1.4668,1.4667,1.4667,0,0,1.4203,1.4234,1.427,1.4299,1.4344,1.4367,1.4376,1.4423,1.444,1.4487,1.4502,1.4535,1.46,1.4629,1.4652,1.4691,1.47,1.4703,1.4712,1.4737,1.4741,1.4744,1.4756,1.4761,1.4706,1.4706,1.4706,0,1.4205,1.426,1.4288,1.4325,1.4351,1.437,1.4406,1.4433,1.4487,1.4504,1.4501,1.4583,1.4613,1.4667,1.4676,1.4695,1.4705,1.4697,1.4738,1.4742,1.4745,1.4757,1.4762,1.4706,1.4706,1.4706,1.4706,0,1.4259,1.4298,1.4322,1.4373,1.4401,1.4438,1.447,1.4495,1.4509,1.4533,1.4581,1.4617,1.4661,1.4676,1.469,1.4732,1.473,1.4732,1.4727,1.4748,1.476,1.4765,1.4706,1.4706,1.4706,1.4706,0,0,1.428,1.4346,1.4354,1.4377,1.4427,1.4457,1.4495,1.4538,1.4559,1.4595,1.4627,1.4681,1.4684,1.471,1.4728,1.475,1.4777,1.475,1.4751,1.4752,1.4824,1.4821,1.4826,1.4784,1.4785,1.4786,1.482,0,1.4314,1.4381,1.4406,1.4462,1.4497,1.4516,1.4548,1.4582,1.4605,1.4638,1.4664,1.4701,1.4702,1.4718,1.4741,1.4769,1.4791,1.4767,1.4812,1.4813,1.4799,1.4832,1.4829,1.4859,1.4825,1.4826,1.4827,0,1.4362,1.4398,1.4457,1.4502,1.4517,1.4546,1.4587,1.4619,1.4658,1.4673,1.4702,1.4718,1.4757,1.475,1.4804,1.4787,1.4807,1.4824,1.4825,1.4829,1.482,1.4835,1.487,1.4874,1.4834,1.4834,1.4833,0,1.4369,1.4433,1.4476,1.4496,1.4549,1.4569,1.4592,1.463,1.4654,1.4691,1.4706,1.4747,1.4769,1.48,1.4826,1.4819,1.4877,1.4873,1.489,1.4889,1.49,1.4899,1.4937,1.4916,1.4916,1.4916,1.4916,0,1.4402,1.4437,1.448,1.4506,1.4545,1.4574,1.4612,1.4636,1.467,1.47,1.472,1.4748,1.4782,1.4815,1.4836,1.4877,1.4887,1.49,1.4905,1.4897,1.4895,1.491,1.4908,1.4917,1.4917,1.4917,1.4916,0,1.4416,1.4447,1.4494,1.4541,1.4554,1.458,1.462,1.4646,1.467,1.4709,1.472,1.4758,1.4797,1.4827,1.4879,1.4893,1.4935,1.4941,1.4922,1.4924,1.494,1.4937,1.4987,1.4994,1.4969,1.497,1.497,0,1.4435,1.4462,1.4512,1.4534,1.4557,1.4592,1.4617,1.4647,1.4672,1.4717,1.4737,1.4778,1.4812,1.4875,1.4906,1.4946,1.4952,1.4967,1.4958,1.4949,1.495,1.4948,1.495,1.4967,1.4967,1.4967,1.4968,0,1.4464,1.4478,1.4513,1.4553,1.4582,1.4616,1.4649,1.4666,1.4701,1.4728,1.4769,1.4795,1.4848,1.4888,1.493,1.4954,1.4966,1.497,1.4976,1.4968,1.4955,1.4961,1.4924,1.4969,1.4969,1.4968,1.4968,1.4968,1.448,1.4504,1.4543,1.4581,1.461,1.464,1.4667,1.4694,1.4728,1.4773,1.4789,1.483,1.4868,1.4926,1.495,1.4983,1.4983,1.4992,1.4994,1.4995,1.4993,1.4951,1.4991,1.4991,1.4991,1.4991,1.4991,0,1.4509,1.4535,1.457,1.4616,1.4646,1.4655,1.4693,1.4717,1.4753,1.4787,1.4821,1.4867,1.4906,1.4941,1.4981,1.5,1.5007,1.501,1.5008,1.5013,1.4992,1.4982,1.5004,1.5004,1.5004,1.5004,1.5004,1.5004,1.4527,1.4569,1.4587,1.4642,1.4668,1.4709,1.4729,1.4757,1.4784,1.4835,1.4867,1.489,1.4924,1.4967,1.5003,1.5012,1.5026,1.5027,1.5037,1.5016,1.5015,1.5013,1.5004,1.503,1.503,1.5056,1.5056,1.5056]},{"header":{"parameterUnit":"m.s-1","parameterCategory":1,"la1":30.2991,"la2":30.254,"lo1":-89.0895,"lo2":-89.0444,"dy":0.0017,"dx":0.0017,"nx":28,"ny":28,"refTime":"2024-04-25T09:00:00:Z","depth":0,"parameterNumber":3,"parameterNumberName":"V-component_of_WINDS"},"data":[0,0,0,0,0,0,0,0,0,0,0,0,0,0,0,0,0,0,0,0,0,0,0,0,0,0,0,0,0,0,0,0,0,0,0,0,0,0,0,0,0,0,0,0,0,0,0,0,0,0,0,0,0,0,0,0,0,0,2.6272,2.6272,0,2.6263,2.6263,2.6262,2.6171,2.6169,2.6167,2.6165,2.6155,2.6157,2.6159,0,0,0,0,0,0,0,0,0,0,0,0,0,2.6211,2.6213,2.6272,2.6272,2.6272,2.6263,2.6263,2.6262,2.6172,2.6169,2.6166,2.6164,2.6155,2.6157,2.6159,0,0,0,0,0,0,0,0,0,0,0,0,0,2.6223,2.6213,2.6272,2.6226,2.6221,2.6263,2.6263,2.6262,2.6172,2.6169,2.6166,2.6162,2.6154,2.6157,2.616,2.6245,0,0,2.6168,2.6169,0,0,0,0,0,0,0,0,2.6223,2.6226,2.6233,2.6229,2.6224,2.6215,2.6237,2.6257,2.6173,2.6191,2.6165,2.6161,2.6178,2.6179,2.6184,2.6244,2.6244,2.6168,2.617,2.6171,2.6172,0,0,0,0,0,0,0,2.6222,2.6226,2.6268,2.6233,2.6228,2.6205,2.6203,2.6241,2.6204,2.6189,2.6183,2.6183,2.6175,2.6182,2.6183,2.6244,2.6168,2.6171,2.6172,2.6174,2.6371,2.6375,0,0,0,0,0,0,2.6228,2.6225,2.6269,2.6268,2.6215,2.6209,2.6207,2.6221,2.6203,2.6197,2.6186,2.6179,2.6179,2.618,2.6183,2.628,2.6171,2.6174,2.6175,2.6368,2.6372,2.6376,0,0,0,0,0,0,2.6227,2.6232,2.6269,2.6245,2.6248,2.6213,2.6231,2.6223,2.6229,2.62,2.6193,2.6199,2.6176,2.6179,2.6229,2.6278,2.6175,2.6178,2.6364,2.6369,2.6374,2.6476,0,0,0,0,0,0,2.6225,2.6233,2.6265,2.6246,2.625,2.6317,2.6234,2.6225,2.6235,2.6225,2.6211,2.6206,2.6174,2.6226,2.6232,2.628,2.618,2.6359,2.6366,2.6372,2.6468,2.6484,2.6498,0,0,0,0,0,2.6224,2.6295,2.6267,2.6273,2.6289,2.632,2.6321,2.6283,2.6239,2.6271,2.6252,2.6206,2.6272,2.6232,2.6238,2.6288,2.6356,2.6364,2.6372,2.6461,2.6481,2.6497,0,0,0,0,0,0,2.6321,2.6291,2.6261,2.6328,2.6327,2.6304,2.6343,2.6305,2.6317,2.6308,2.6259,2.6257,2.6315,2.6306,2.6262,2.6368,2.6306,2.6316,2.6372,2.639,2.6405,2.6405,2.6182,0,0,0,0,0,2.635,2.6377,2.635,2.6412,2.6413,2.6379,2.639,2.6361,2.6358,2.6357,2.6341,2.6341,2.636,2.6375,2.6392,2.6466,2.6461,2.6503,2.6518,2.6531,2.6539,2.6576,2.6594,2.6402,2.6402,2.6402,0,0,2.6411,2.6398,2.6418,2.6431,2.6427,2.6455,2.6379,2.6413,2.6433,2.6362,2.6408,2.6397,2.6393,2.6455,2.6482,2.645,2.6591,2.6541,2.6551,2.6553,2.6587,2.6605,2.6621,2.6408,2.6407,2.6406,0,0,2.6535,2.6529,2.6579,2.6576,2.657,2.6546,2.6559,2.6542,2.6531,2.6577,2.6523,2.6547,2.6583,2.6582,2.6586,2.6709,2.6667,2.6716,2.6793,2.683,2.6845,2.6858,2.69,2.6916,2.6724,2.6725,2.6725,0,2.6612,2.6653,2.661,2.6647,2.6653,2.6589,2.6639,2.6638,2.6639,2.6644,2.6608,2.6651,2.6644,2.6704,2.6734,2.674,2.6751,2.6716,2.6846,2.6859,2.687,2.691,2.6927,2.6731,2.673,2.6729,2.6729,0,2.6746,2.6775,2.6816,2.6817,2.6828,2.6871,2.6834,2.6851,2.682,2.68,2.6847,2.6836,2.6848,2.6861,2.6831,2.6917,2.6897,2.6855,2.6791,2.6895,2.6932,2.6947,2.6739,2.6737,2.6735,2.6734,0,0,2.6932,2.6907,2.6923,2.6921,2.691,2.6931,2.6971,2.6983,2.6997,2.7,2.7031,2.7063,2.7023,2.7028,2.6997,2.703,2.7126,2.6983,2.6982,2.7009,2.7218,2.7249,2.7267,2.7098,2.7101,2.7103,2.7217,0,2.7051,2.7117,2.7078,2.715,2.7175,2.7115,2.7149,2.7145,2.7128,2.7146,2.7127,2.7149,2.7096,2.7098,2.7127,2.7108,2.7167,2.7099,2.7126,2.7128,2.7128,2.7286,2.732,2.7428,2.7232,2.7234,2.7236,0,2.7198,2.7205,2.7279,2.7261,2.727,2.7302,2.7308,2.7328,2.7322,2.7306,2.7311,2.7273,2.731,2.7247,2.7297,2.7252,2.7261,2.7253,2.7256,2.7257,2.7188,2.729,2.7462,2.7478,2.7258,2.7256,2.7255,0,2.7324,2.7353,2.74,2.7401,2.7381,2.7404,2.7397,2.7388,2.7397,2.7403,2.7409,2.742,2.7426,2.7435,2.74,2.7358,2.7454,2.739,2.7442,2.7443,2.7464,2.7463,2.7639,2.7473,2.7472,2.7472,2.7472,0,2.746,2.7508,2.7456,2.7485,2.7536,2.7491,2.7543,2.7529,2.7521,2.7546,2.7495,2.7519,2.7472,2.7492,2.7465,2.751,2.7514,2.7502,2.7494,2.7506,2.7507,2.751,2.7501,2.7476,2.7475,2.7474,2.7474,0,2.761,2.7578,2.7625,2.7601,2.7596,2.7635,2.7615,2.764,2.7619,2.7651,2.7656,2.7622,2.7643,2.7609,2.7626,2.7608,2.767,2.7651,2.7671,2.7665,2.7719,2.7714,2.7903,2.7925,2.7745,2.7747,2.7748,0,2.7698,2.7733,2.7713,2.7725,2.7721,2.7742,2.775,2.7708,2.7719,2.7714,2.774,2.7756,2.7766,2.7802,2.7779,2.7792,2.7772,2.7837,2.7773,2.7784,2.7771,2.7769,2.7772,2.785,2.7852,2.7854,2.7855,0,2.7858,2.784,2.7854,2.7862,2.7873,2.7878,2.7879,2.7892,2.7847,2.7862,2.7882,2.789,2.7906,2.7923,2.7929,2.7921,2.7881,2.7875,2.7888,2.79,2.791,2.7904,2.7706,2.7871,2.787,2.7868,2.7868,2.7867,2.7978,2.8005,2.7995,2.8012,2.8008,2.801,2.8032,2.8013,2.8028,2.8037,2.8012,2.8037,2.8029,2.8034,2.803,2.805,2.8021,2.804,2.8044,2.8049,2.8057,2.7908,2.8051,2.8051,2.805,2.805,2.8049,0,2.8134,2.8124,2.814,2.8142,2.8155,2.8115,2.8114,2.8127,2.815,2.8146,2.8157,2.8179,2.8195,2.8173,2.8184,2.8204,2.8186,2.8208,2.8206,2.8205,2.8083,2.807,2.8223,2.8223,2.8223,2.8223,2.8223,2.8223,2.8216,2.826,2.824,2.828,2.827,2.8294,2.8296,2.8297,2.8294,2.832,2.8332,2.8318,2.8306,2.8316,2.8328,2.8321,2.8328,2.8357,2.8344,2.823,2.8213,2.8197,2.8185,2.8359,2.8359,2.8463,2.8464,2.8465]}]]